This is the latest recevied weather packets stored in our database for station/object K5WNG. If no packets are shown the sender has not sent any weather packets the latest 10 day(s).
| Time | Temp. | Humidity | Pressure | Rain* | Wind** | Luminosity | Snow |
|---|---|---|---|---|---|---|---|
| 1778098518 | 20.56° C | 75% | 1012.1 hPa | 0 mm | - | 545 W/m² | - |
| 1778098221 | 20.56° C | 74% | 1012 hPa | 0 mm | - | 381 W/m² | - |
| 1778097919 | 20.56° C | 75% | 1011.9 hPa | 0 mm | - | 549 W/m² | - |
| 1778097616 | 21.11° C | 75% | 1011.9 hPa | 0 mm | - | 425 W/m² | - |
| 1778097319 | 21.11° C | 74% | 1011.9 hPa | 0 mm | - | 396 W/m² | - |
| 1778097016 | 21.67° C | 73% | 1011.8 hPa | 0 mm | - | 368 W/m² | - |
| 1778096719 | 21.67° C | 75% | 1011.7 hPa | 0 mm | - | 475 W/m² | - |
| 1778096416 | 21.67° C | 75% | 1011.6 hPa | 0 mm | - | 506 W/m² | - |
| 1778096116 | 21.67° C | 75% | 1011.7 hPa | 0 mm | - | 490 W/m² | - |
| 1778095816 | 22.22° C | 74% | 1011.7 hPa | 0 mm | - | 453 W/m² | - |
| 1778095517 | 22.78° C | 73% | 1011.7 hPa | 0 mm | - | 425 W/m² | - |
| 1778095217 | 23.33° C | 72% | 1011.6 hPa | 0 mm | - | 454 W/m² | - |
| 1778094917 | 23.89° C | 72% | 1011.6 hPa | 0 mm | - | 407 W/m² | - |
| 1778094622 | 23.89° C | 74% | 1011.7 hPa | 0 mm | - | 356 W/m² | - |
| 1778094320 | 23.89° C | 74% | 1011.9 hPa | 0 mm | - | 240 W/m² | - |
| 1778094017 | 24.44° C | 73% | 1011.9 hPa | 0 mm | - | 283 W/m² | - |
| 1778093720 | 24.44° C | 73% | 1011.8 hPa | 0 mm | - | 295 W/m² | - |
| 1778093417 | 24.44° C | 72% | 1011.8 hPa | 0 mm | - | 373 W/m² | - |
| 1778093118 | 25° C | 71% | 1011.6 hPa | 0 mm | - | 476 W/m² | - |
| 1778092818 | 25° C | 70% | 1011.6 hPa | 0 mm | - | 688 W/m² | - |
| 1778092517 | 25° C | 71% | 1011.6 hPa | 0 mm | - | 660 W/m² | - |
| 1778092218 | 25° C | 70% | 1011.6 hPa | 0 mm | - | 808 W/m² | - |
| 1778091920 | 25° C | 70% | 1011.6 hPa | 0 mm | - | 928 W/m² | - |
| 1778091621 | 25° C | 70% | 1011.5 hPa | 0 mm | - | 995 W/m² | - |
| 1778091321 | 25° C | 70% | 1011.6 hPa | 0 mm | - | 904 W/m² | - |
* Rain latest hour (hover to see other rain measurements)
** Current wind speed in m/s (hover to see current wind gust speed)